TNO1171 SVVA-SVMI

Flight info

Callsign TNO1171
Flight time 0h 31m
Altitude 17000
Route PBL1 VAL DCT PBL ALDAK1
Aircraft C750/M-SBDE3FGHRWXY/S

Departure

Time 2026-05-06 15:57
Airport Arturo Michelena International Airport (SVVA)

Arrival

Time 2026-05-06 16:28
Airport Maiquetía Simón Bolívar International Airport (SVMI)
Time Latitude Longitude Altitude Speed Heading
2026-05-06 15:36 10.15167 -67.93818 1422 ft 0 kts
2026-05-06 15:47 10.15157 -67.93819 1422 ft 4 kts 331°
2026-05-06 15:48 10.15153 -67.93806 1422 ft 4 kts 267°
2026-05-06 15:48 10.15153 -67.93792 1422 ft 1 kts 272°
2026-05-06 15:48 10.15153 -67.93790 1422 ft 0 kts 272°
2026-05-06 15:51 10.15154 -67.93808 1422 ft 5 kts 272°
2026-05-06 15:51 10.15124 -67.93823 1422 ft 6 kts 153°
2026-05-06 15:51 10.15116 -67.93772 1421 ft 10 kts 91°
2026-05-06 15:52 10.15113 -67.93689 1421 ft 13 kts 91°
2026-05-06 15:52 10.15110 -67.93591 1421 ft 15 kts 92°
2026-05-06 15:52 10.15104 -67.93481 1421 ft 16 kts 93°
2026-05-06 15:52 10.15098 -67.93358 1421 ft 19 kts 93°
2026-05-06 15:53 10.15092 -67.93225 1420 ft 18 kts 93°
2026-05-06 15:53 10.15086 -67.93100 1420 ft 17 kts 92°
2026-05-06 15:53 10.15080 -67.92989 1421 ft 10 kts 92°
2026-05-06 15:53 10.15040 -67.92952 1419 ft 10 kts 180°
2026-05-06 15:54 10.14982 -67.92913 1416 ft 13 kts 100°
2026-05-06 15:54 10.14976 -67.92807 1417 ft 17 kts 92°
2026-05-06 15:54 10.14973 -67.92679 1413 ft 19 kts 89°
2026-05-06 15:54 10.14963 -67.92545 1411 ft 19 kts 91°
2026-05-06 15:55 10.14961 -67.92410 1409 ft 20 kts 94°
2026-05-06 15:55 10.14955 -67.92266 1407 ft 20 kts 92°
2026-05-06 15:55 10.14948 -67.92124 1408 ft 21 kts 93°
2026-05-06 15:55 10.14940 -67.91978 1409 ft 20 kts 93°
2026-05-06 15:56 10.14940 -67.91842 1406 ft 18 kts 83°
2026-05-06 15:56 10.14926 -67.91766 1412 ft 7 kts 182°
2026-05-06 15:56 10.14922 -67.91802 1407 ft 6 kts 301°
2026-05-06 15:56 10.14931 -67.91864 1406 ft 20 kts 274°
2026-05-06 15:57 10.14957 -67.92395 1408 ft 130 kts 273°
2026-05-06 15:57 10.15011 -67.93481 1707 ft 165 kts 272°
2026-05-06 15:57 10.15078 -67.94685 2329 ft 182 kts 273°
2026-05-06 15:57 10.15177 -67.96036 2957 ft 201 kts 274°
2026-05-06 15:58 10.15308 -67.97498 3661 ft 213 kts 275°
2026-05-06 15:58 10.15428 -67.99040 4384 ft 226 kts 272°
2026-05-06 15:58 10.15315 -68.00690 4857 ft 247 kts 257°
2026-05-06 15:58 10.14550 -68.02376 5084 ft 283 kts 231°
2026-05-06 15:59 10.12995 -68.03580 6062 ft 280 kts 202°
2026-05-06 15:59 10.11108 -68.03834 7260 ft 275 kts 172°
2026-05-06 15:59 10.09352 -68.03089 8314 ft 280 kts 142°
2026-05-06 15:59 10.08220 -68.01621 9140 ft 292 kts 115°
2026-05-06 16:00 10.07852 -67.99601 10245 ft 291 kts 89°
2026-05-06 16:00 10.08342 -67.97719 11285 ft 297 kts 66°
2026-05-06 16:00 10.09743 -67.96050 11508 ft 330 kts 42°
2026-05-06 16:00 10.11683 -67.94675 11641 ft 358 kts 34°
2026-05-06 16:01 10.14008 -67.93682 12353 ft 367 kts 19°
2026-05-06 16:01 10.16563 -67.93390 13135 ft 376 kts
2026-05-06 16:01 10.19127 -67.93970 13940 ft 383 kts 341°
2026-05-06 16:01 10.21521 -67.95180 14753 ft 385 kts 334°
2026-05-06 16:02 10.23873 -67.96489 15532 ft 386 kts 334°
2026-05-06 16:02 10.26294 -67.97671 16294 ft 387 kts 339°
2026-05-06 16:02 10.28789 -67.98714 16948 ft 392 kts 340°
2026-05-06 16:02 10.31357 -67.99840 17003 ft 413 kts 338°
2026-05-06 16:03 10.33970 -68.01039 16700 ft 401 kts 341°
2026-05-06 16:03 10.36580 -68.01751 16181 ft 378 kts 352°
2026-05-06 16:03 10.39165 -68.02022 15683 ft 372 kts
2026-05-06 16:03 10.41720 -68.01880 15200 ft 372 kts
2026-05-06 16:04 10.44250 -68.01327 14704 ft 370 kts 19°
2026-05-06 16:04 10.46641 -68.00387 14218 ft 368 kts 28°
2026-05-06 16:04 10.48847 -67.99087 13731 ft 365 kts 37°
2026-05-06 16:04 10.50805 -67.97477 13245 ft 361 kts 45°
2026-05-06 16:05 10.52483 -67.95601 12766 ft 357 kts 54°
2026-05-06 16:05 10.53852 -67.93507 12291 ft 353 kts 63°
2026-05-06 16:05 10.54884 -67.91265 11826 ft 349 kts 70°
2026-05-06 16:05 10.55769 -67.88971 11357 ft 348 kts 70°
2026-05-06 16:06 10.56651 -67.86752 10906 ft 328 kts 70°
2026-05-06 16:06 10.57477 -67.84671 10482 ft 308 kts 70°
2026-05-06 16:06 10.58241 -67.82702 10085 ft 292 kts 71°
2026-05-06 16:06 10.58976 -67.80804 9701 ft 286 kts 71°
2026-05-06 16:07 10.59707 -67.78932 9327 ft 284 kts 71°
2026-05-06 16:07 10.60438 -67.77064 8950 ft 285 kts 71°
2026-05-06 16:07 10.61158 -67.75218 8565 ft 284 kts 71°
2026-05-06 16:07 10.61887 -67.73353 8191 ft 283 kts 71°
2026-05-06 16:08 10.62609 -67.71502 7821 ft 281 kts 71°
2026-05-06 16:08 10.63328 -67.69663 7452 ft 279 kts 71°
2026-05-06 16:08 10.64042 -67.67843 7072 ft 277 kts 71°
2026-05-06 16:08 10.64749 -67.66028 6709 ft 275 kts 71°
2026-05-06 16:09 10.65451 -67.64224 6348 ft 274 kts 71°
2026-05-06 16:09 10.66155 -67.62425 5993 ft 272 kts 71°
2026-05-06 16:09 10.66850 -67.60648 5624 ft 269 kts 71°
2026-05-06 16:09 10.67539 -67.58881 5266 ft 268 kts 71°
2026-05-06 16:10 10.68201 -67.57124 4979 ft 262 kts 75°
2026-05-06 16:10 10.68698 -67.55374 4987 ft 257 kts 76°
2026-05-06 16:10 10.69247 -67.53614 4990 ft 262 kts 75°
2026-05-06 16:10 10.69799 -67.51834 4992 ft 265 kts 75°
2026-05-06 16:11 10.70348 -67.50067 4989 ft 267 kts 75°
2026-05-06 16:11 10.70923 -67.48277 4989 ft 266 kts 74°
2026-05-06 16:11 10.71481 -67.46553 4980 ft 246 kts 75°
2026-05-06 16:11 10.72000 -67.44929 4970 ft 240 kts 75°
2026-05-06 16:12 10.72515 -67.43309 4971 ft 242 kts 75°
2026-05-06 16:12 10.73036 -67.41673 4973 ft 244 kts 75°
2026-05-06 16:12 10.73382 -67.40587 4978 ft 243 kts 75°
2026-05-06 16:12 10.73906 -67.38955 4981 ft 243 kts 75°
2026-05-06 16:13 10.74428 -67.37324 4987 ft 242 kts 75°
2026-05-06 16:13 10.74950 -67.35692 4983 ft 243 kts 75°
2026-05-06 16:13 10.75469 -67.34059 4985 ft 243 kts 75°
2026-05-06 16:13 10.75995 -67.32423 4984 ft 243 kts 75°
2026-05-06 16:14 10.76514 -67.30789 4983 ft 243 kts 75°
2026-05-06 16:14 10.77033 -67.29159 4987 ft 243 kts 75°
2026-05-06 16:14 10.77555 -67.27524 4987 ft 242 kts 75°
2026-05-06 16:14 10.78075 -67.25893 4979 ft 243 kts 75°
2026-05-06 16:15 10.78598 -67.24259 4970 ft 243 kts 75°
2026-05-06 16:15 10.79116 -67.22627 4974 ft 240 kts 75°
2026-05-06 16:15 10.79633 -67.21000 4978 ft 242 kts 75°
2026-05-06 16:15 10.80154 -67.19367 4969 ft 242 kts 75°
2026-05-06 16:16 10.80674 -67.17743 4972 ft 241 kts 75°
2026-05-06 16:16 10.81190 -67.16118 4975 ft 242 kts 75°
2026-05-06 16:16 10.81700 -67.14514 4973 ft 241 kts 75°
2026-05-06 16:16 10.82217 -67.12887 4976 ft 242 kts 76°
2026-05-06 16:17 10.82735 -67.11262 4970 ft 242 kts 75°
2026-05-06 16:17 10.83253 -67.09635 4976 ft 243 kts 75°
2026-05-06 16:17 10.83771 -67.08005 4976 ft 242 kts 75°
2026-05-06 16:17 10.84291 -67.06374 4973 ft 242 kts 75°
2026-05-06 16:18 10.84808 -67.04745 4974 ft 242 kts 75°
2026-05-06 16:18 10.85324 -67.03120 4975 ft 241 kts 75°
2026-05-06 16:18 10.85844 -67.01490 4978 ft 242 kts 75°
2026-05-06 16:18 10.86362 -66.99865 4975 ft 241 kts 75°
2026-05-06 16:19 10.86877 -66.98241 4975 ft 241 kts 76°
2026-05-06 16:19 10.87391 -66.96617 4972 ft 241 kts 76°
2026-05-06 16:19 10.87908 -66.94996 4970 ft 241 kts 75°
2026-05-06 16:19 10.88394 -66.93371 4966 ft 238 kts 80°
2026-05-06 16:20 10.88314 -66.91699 4970 ft 237 kts 107°
2026-05-06 16:20 10.87594 -66.90195 4979 ft 238 kts 122°
2026-05-06 16:20 10.86710 -66.88764 4981 ft 239 kts 122°
2026-05-06 16:20 10.85842 -66.87326 4981 ft 238 kts 122°
2026-05-06 16:21 10.84979 -66.85882 4977 ft 238 kts 122°
2026-05-06 16:21 10.84114 -66.84449 4978 ft 238 kts 122°
2026-05-06 16:21 10.83252 -66.83034 4974 ft 240 kts 122°
2026-05-06 16:21 10.82380 -66.81593 4966 ft 238 kts 122°
2026-05-06 16:22 10.81513 -66.80156 4965 ft 237 kts 122°
2026-05-06 16:22 10.80586 -66.78770 4952 ft 238 kts 132°
2026-05-06 16:22 10.79196 -66.77852 4968 ft 243 kts 157°
2026-05-06 16:22 10.77503 -66.77624 4832 ft 253 kts 183°
2026-05-06 16:23 10.75776 -66.78006 4633 ft 255 kts 192°
2026-05-06 16:23 10.74063 -66.78454 4382 ft 254 kts 192°
2026-05-06 16:23 10.72356 -66.78881 4114 ft 250 kts 191°
2026-05-06 16:23 10.70698 -66.79287 3844 ft 239 kts 191°
2026-05-06 16:24 10.69111 -66.79681 3600 ft 230 kts 191°
2026-05-06 16:24 10.67572 -66.80066 3367 ft 226 kts 192°
2026-05-06 16:24 10.66160 -66.80775 3102 ft 234 kts 220°
2026-05-06 16:24 10.65258 -66.82158 2892 ft 237 kts 245°
2026-05-06 16:25 10.64657 -66.83705 2712 ft 233 kts 249°
2026-05-06 16:25 10.64070 -66.85233 2462 ft 232 kts 248°
2026-05-06 16:25 10.63469 -66.86750 2219 ft 231 kts 248°
2026-05-06 16:25 10.62866 -66.88263 1977 ft 230 kts 249°
2026-05-06 16:26 10.62277 -66.89749 1743 ft 225 kts 249°
2026-05-06 16:26 10.61769 -66.91175 1486 ft 200 kts 257°
2026-05-06 16:26 10.61506 -66.92499 1488 ft 192 kts 258°
2026-05-06 16:26 10.61246 -66.93760 1253 ft 172 kts 258°
2026-05-06 16:27 10.60965 -66.94890 922 ft 158 kts 255°
2026-05-06 16:27 10.60699 -66.95957 560 ft 152 kts 257°
2026-05-06 16:27 10.60540 -66.96978 358 ft 139 kts 264°
2026-05-06 16:27 10.60486 -66.97905 228 ft 125 kts 268°
2026-05-06 16:28 10.60459 -66.98733 180 ft 107 kts 268°
2026-05-06 16:28 10.60441 -66.99279 202 ft 50 kts 268°
2026-05-06 16:28 10.60435 -66.99531 202 ft 31 kts 269°
2026-05-06 16:28 10.60409 -66.99670 208 ft 13 kts 208°
2026-05-06 16:29 10.60320 -66.99673 207 ft 15 kts 179°
2026-05-06 16:29 10.60209 -66.99669 201 ft 16 kts 178°
2026-05-06 16:29 10.60115 -66.99666 207 ft 10 kts 179°
2026-05-06 16:29 10.60063 -66.99665 211 ft 7 kts 177°
2026-05-06 16:30 10.59989 -66.99661 215 ft 14 kts 176°
2026-05-06 16:30 10.59924 -66.99661 216 ft 13 kts 193°
2026-05-06 16:30 10.59853 -66.99726 218 ft 10 kts 185°
2026-05-06 16:30 10.59810 -66.99665 214 ft 14 kts 82°
2026-05-06 16:31 10.59801 -66.99556 211 ft 17 kts 102°
2026-05-06 16:31 10.59808 -66.99437 207 ft 18 kts 76°
2026-05-06 16:31 10.59841 -66.99303 201 ft 21 kts 76°
2026-05-06 16:31 10.59875 -66.99165 195 ft 20 kts 76°
2026-05-06 16:32 10.59909 -66.99026 189 ft 18 kts 76°
2026-05-06 16:32 10.59941 -66.98896 188 ft 20 kts 76°
2026-05-06 16:32 10.59976 -66.98762 180 ft 17 kts 75°
2026-05-06 16:32 10.60005 -66.98651 176 ft 10 kts 78°
2026-05-06 16:33 10.60023 -66.98582 173 ft 11 kts 73°
2026-05-06 16:33 10.60059 -66.98504 171 ft 13 kts 58°
2026-05-06 16:33 10.60088 -66.98416 169 ft 14 kts 76°
2026-05-06 16:34 10.60117 -66.98198 161 ft 18 kts 64°
2026-05-06 16:34 10.60169 -66.98088 156 ft 16 kts 76°
2026-05-06 16:34 10.60194 -66.97985 153 ft 14 kts 76°
2026-05-06 16:34 10.60219 -66.97882 148 ft 15 kts 76°
2026-05-06 16:35 10.60241 -66.97787 140 ft 12 kts 74°
2026-05-06 16:35 10.60233 -66.97715 136 ft 11 kts 111°
2026-05-06 16:35 10.60238 -66.97627 132 ft 14 kts 77°
2026-05-06 16:35 10.60243 -66.97563 131 ft 4 kts 129°
2026-05-06 16:36 10.60230 -66.97559 131 ft 0 kts 167°